| time (UTC) | temp C | wind direction | speed KPH | gust KPH | rain 1hr cm | rain 24hr cm | rain mn cm | humidity % | barometer mb |
| 20260906233502 | 25 | 1 | 0.0 | 9.7 | 0.00 | 0.00 | 0.00 | 27 | 1025.5 |
| 20260906232503 | 25 | 20 | 1.6 | 8.0 | 0.00 | 0.00 | 0.00 | 26 | 1025.3 |
| 20260906231503 | 25 | 344 | 1.6 | 17.7 | 0.00 | 0.00 | 0.00 | 27 | 1024.9 |
| 20260906230504 | 25 | 7 | 8.0 | 12.9 | 0.00 | 0.00 | 0.00 | 25 | 1025.2 |
| 20260906225504 | 25 | 4 | 6.4 | 14.5 | 0.00 | 0.00 | 0.00 | 24 | 1024.9 |
| 20260906224502 | 25 | 20 | 6.4 | 14.5 | 0.00 | 0.00 | 0.00 | 23 | 1024.8 |
| 20260906222404 | 26 | 295 | 3.2 | 8.0 | 0.00 | 0.00 | 0.00 | 22 | 1024.8 |
| 20260906221402 | 26 | 340 | 1.6 | 17.7 | 0.00 | 0.00 | 0.00 | 21 | 1024.8 |
| 20260906220402 | 27 | 52 | 1.6 | 12.9 | 0.00 | 0.00 | 0.00 | 21 | 1024.8 |
| 20260906215403 | 26 | 155 | 0.0 | 1.6 | 0.00 | 0.00 | 0.00 | 22 | 1024.9 |
| 20260906214403 | 26 | 154 | 0.0 | 6.4 | 0.00 | 0.00 | 0.00 | 23 | 1025.1 |
| 20260906211204 | 26 | 360 | 3.2 | 14.5 | 0.00 | 0.00 | 0.00 | 22 | 1025.5 |
| 20260906210204 | 26 | 360 | 3.2 | 16.1 | 0.00 | 0.00 | 0.00 | 22 | 1025.6 |
| 20260906205203 | 26 | 360 | 3.2 | 14.5 | 0.00 | 0.00 | 0.00 | 21 | 1025.7 |
| 20260906203102 | 25 | 45 | 3.2 | 6.4 | 0.00 | 0.00 | 0.00 | 22 | 1026.0 |
| 20260906202103 | 25 | 21 | 1.6 | 4.8 | 0.00 | 0.00 | 0.00 | 23 | 1026.3 |
| 20260906201103 | 25 | 6 | 0.0 | 8.0 | 0.00 | 0.00 | 0.00 | 23 | 1026.3 |
| 20260906200103 | 25 | 340 | 4.8 | 12.9 | 0.00 | 0.00 | 0.00 | 23 | 1026.4 |
| 20260906195104 | 25 | 1 | 3.2 | 8.0 | 0.00 | 0.00 | 0.00 | 21 | 1026.4 |
| 20260906194104 | 25 | 44 | 1.6 | 11.3 | 0.00 | 0.00 | 0.00 | 21 | 1026.4 |
| 20260906193102 | 25 | 357 | 3.2 | 9.7 | 0.00 | 0.00 | 0.00 | 21 | 1026.5 |
| 20260906192102 | 25 | 316 | 6.4 | 8.0 | 0.00 | 0.00 | 0.00 | 22 | 1026.5 |
| 20260906191103 | 25 | 0 | 0.0 | 6.4 | 0.00 | 0.00 | 0.00 | 22 | 1026.5 |
| 20260906185003 | 25 | 340 | 3.2 | 6.4 | 0.00 | 0.00 | 0.00 | 20 | 1026.8 |
| 20260906184003 | 25 | 344 | 3.2 | 14.5 | 0.00 | 0.00 | 0.00 | 19 | 1026.9 |
| 20260906181903 | 24 | 333 | 4.8 | 14.5 | 0.00 | 0.00 | 0.00 | 21 | 1027.3 |
| 20260906180903 | 24 | 357 | 4.8 | 16.1 | 0.00 | 0.00 | 0.00 | 22 | 1027.6 |
| 20260906175903 | 24 | 16 | 6.4 | 11.3 | 0.00 | 0.00 | 0.00 | 21 | 1027.7 |
| 20260906174904 | 24 | 346 | 3.2 | 14.5 | 0.00 | 0.00 | 0.00 | 21 | 1027.9 |
| 20260906173902 | 24 | 360 | 4.8 | 8.0 | 0.00 | 0.00 | 0.00 | 21 | 1028.0 |
| 20260906172904 | 24 | 13 | 3.2 | 11.3 | 0.00 | 0.00 | 0.00 | 20 | 1028.0 |
| 20260906170802 | 23 | 3 | 4.8 | 11.3 | 0.00 | 0.00 | 0.00 | 22 | 1028.3 |
| 20260906165803 | 23 | 16 | 3.2 | 11.3 | 0.00 | 0.00 | 0.00 | 23 | 1028.3 |
| 20260906164803 | 23 | 3 | 3.2 | 9.7 | 0.00 | 0.00 | 0.00 | 23 | 1028.4 |
| 20260906163803 | 22 | 1 | 1.6 | 4.8 | 0.00 | 0.00 | 0.00 | 25 | 1028.4 |
| 20260906162803 | 21 | 3 | 0.0 | 0.0 | 0.00 | 0.00 | 0.00 | 26 | 1028.4 |
| 20260906161803 | 20 | 3 | 0.0 | 0.0 | 0.00 | 0.00 | 0.00 | 30 | 1028.4 |
| 20260906160802 | 20 | 3 | 0.0 | 1.6 | 0.00 | 0.00 | 0.00 | 36 | 1028.5 |
| 20260906155805 | 19 | 58 | 3.2 | 1.6 | 0.00 | 0.00 | 0.00 | 37 | 1028.7 |
| 20260906154804 | 18 | 192 | 0.0 | 0.0 | 0.00 | 0.00 | 0.00 | 36 | 1028.7 |
| 20260906152704 | 17 | 192 | 0.0 | 6.4 | 0.00 | 0.00 | 0.00 | 41 | 1028.8 |
| 20260906151702 | 17 | 152 | 0.0 | 3.2 | 0.00 | 0.00 | 0.00 | 42 | 1028.9 |
| 20260906150703 | 16 | 212 | 1.6 | 9.7 | 0.00 | 0.00 | 0.00 | 43 | 1029.1 |
| 20260906145703 | 15 | 119 | 3.2 | 11.3 | 0.00 | 0.00 | 0.00 | 46 | 1029.2 |
| 20260906144704 | 14 | 360 | 6.4 | 14.5 | 0.00 | 0.00 | 0.00 | 49 | 1029.2 |
| 20260906143703 | 13 | 181 | 4.8 | 14.5 | 0.00 | 0.00 | 0.00 | 52 | 1029.5 |
| 20260906142703 | 13 | 200 | 6.4 | 11.3 | 0.00 | 0.00 | 0.00 | 51 | 1029.6 |
| 20260906140604 | 13 | 216 | 0.0 | 9.7 | 0.00 | 0.00 | 0.00 | 52 | 1029.9 |
| 20260906134504 | 12 | 165 | 0.0 | 14.5 | 0.00 | 0.00 | 0.00 | 53 | 1029.7 |
| 20260906133502 | 12 | 319 | 0.0 | 14.5 | 0.00 | 0.00 | 0.00 | 53 | 1029.7 |
| 20260906132503 | 12 | 222 | 1.6 | 14.5 | 0.00 | 0.00 | 0.00 | 54 | 1029.5 |
| 20260906131504 | 12 | 164 | 0.0 | 6.4 | 0.00 | 0.00 | 0.00 | 54 | 1029.3 |
| 20260906130502 | 12 | 164 | 3.2 | 12.9 | 0.00 | 0.00 | 0.00 | 54 | 1029.2 |
| 20260906124402 | 13 | 360 | 4.8 | 6.4 | 0.00 | 0.00 | 0.00 | 51 | 1028.9 |
| 20260906123403 | 13 | 195 | 1.6 | 9.7 | 0.00 | 0.00 | 0.00 | 52 | 1028.8 |
| 20260906122404 | 13 | 161 | 1.6 | 12.9 | 0.00 | 0.00 | 0.00 | 53 | 1028.9 |
| 20260906121404 | 12 | 216 | 1.6 | 11.3 | 0.00 | 0.00 | 0.00 | 54 | 1028.8 |
| 20260906120403 | 12 | 143 | 3.2 | 14.5 | 0.00 | 0.00 | 0.00 | 54 | 1028.7 |
| 20260906115404 | 12 | 179 | 1.6 | 12.9 | 0.00 | 0.00 | 0.00 | 54 | 1028.5 |
| 20260906114404 | 13 | 144 | 0.0 | 3.2 | 0.00 | 0.00 | 0.00 | 54 | 1028.4 |
| 20260906113403 | 13 | 112 | 1.6 | 4.8 | 0.00 | 0.00 | 0.00 | 53 | 1028.3 |
| 20260906112404 | 13 | 360 | 3.2 | 9.7 | 0.00 | 0.00 | 0.00 | 53 | 1028.5 |
| 20260906111404 | 13 | 107 | 4.8 | 16.1 | 0.00 | 0.00 | 0.00 | 53 | 1028.4 |
| 20260906110403 | 13 | 172 | 4.8 | 8.0 | 0.00 | 0.00 | 0.00 | 53 | 1028.4 |
| 20260906104303 | 13 | 171 | 0.0 | 6.4 | 0.00 | 0.00 | 0.00 | 53 | 1028.4 |
| 20260906103303 | 13 | 220 | 0.0 | 6.4 | 0.00 | 0.00 | 0.00 | 53 | 1028.4 |
| 20260906102306 | 13 | 90 | 0.0 | 8.0 | 0.00 | 0.00 | 0.00 | 52 | 1028.3 |
| 20260906101303 | 13 | 164 | 1.6 | 14.5 | 0.00 | 0.00 | 0.00 | 51 | 1028.3 |
| 20260906100303 | 13 | 178 | 3.2 | 3.2 | 0.00 | 0.00 | 0.00 | 51 | 1028.4 |
| 20260906095306 | 13 | 339 | 1.6 | 16.1 | 0.00 | 0.00 | 0.00 | 51 | 1028.1 |
| 20260906094302 | 13 | 179 | 3.2 | 16.1 | 0.00 | 0.00 | 0.00 | 51 | 1028.0 |
| 20260906093303 | 13 | 143 | 0.0 | 16.1 | 0.00 | 0.00 | 0.00 | 50 | 1028.1 |
| 20260906092306 | 13 | 220 | 3.2 | 11.3 | 0.00 | 0.00 | 0.00 | 50 | 1028.3 |
| 20260906090202 | 13 | 360 | 8.0 | 12.9 | 0.00 | 0.00 | 0.00 | 50 | 1028.3 |
| 20260906085205 | 13 | 209 | 1.6 | 11.3 | 0.00 | 0.00 | 0.00 | 50 | 1028.1 |
| 20260906084203 | 13 | 119 | 1.6 | 12.9 | 0.00 | 0.00 | 0.00 | 50 | 1028.1 |
| 20260906083204 | 13 | 219 | 0.0 | 16.1 | 0.00 | 0.00 | 0.00 | 50 | 1028.3 |
| 20260906082202 | 13 | 162 | 0.0 | 11.3 | 0.00 | 0.00 | 0.00 | 50 | 1028.4 |
| 20260906080103 | 13 | 210 | 4.8 | 11.3 | 0.00 | 0.00 | 0.00 | 49 | 1028.5 |
| 20260906075103 | 13 | 360 | 3.2 | 14.5 | 0.00 | 0.00 | 0.00 | 50 | 1028.5 |
| 20260906074102 | 13 | 195 | 3.2 | 12.9 | 0.00 | 0.00 | 0.00 | 50 | 1028.7 |
| 20260906073103 | 13 | 113 | 3.2 | 8.0 | 0.00 | 0.00 | 0.00 | 49 | 1028.7 |
| 20260906072103 | 14 | 241 | 0.0 | 4.8 | 0.00 | 0.00 | 0.00 | 49 | 1028.8 |
| 20260906071104 | 14 | 195 | 0.0 | 3.2 | 0.00 | 0.00 | 0.00 | 48 | 1028.8 |
| 20260906065103 | 14 | 143 | 3.2 | 12.9 | 0.00 | 0.00 | 0.00 | 48 | 1028.8 |
| 20260906064104 | 14 | 224 | 4.8 | 16.1 | 0.00 | 0.00 | 0.00 | 48 | 1028.7 |
| 20260906063102 | 14 | 360 | 0.0 | 16.1 | 0.00 | 0.00 | 0.00 | 48 | 1028.8 |
| 20260906062103 | 15 | 131 | 0.0 | 6.4 | 0.00 | 0.00 | 0.00 | 48 | 1028.8 |
| 20260906061105 | 15 | 205 | 1.6 | 9.7 | 0.00 | 0.00 | 0.00 | 47 | 1028.7 |
| 20260906055103 | 15 | 223 | 0.0 | 3.2 | 0.00 | 0.00 | 0.00 | 47 | 1028.5 |
| 20260906054103 | 15 | 175 | 3.2 | 6.4 | 0.00 | 0.00 | 0.00 | 47 | 1028.5 |
| 20260906053104 | 15 | 175 | 1.6 | 12.9 | 0.00 | 0.00 | 0.00 | 46 | 1028.7 |
| 20260906052103 | 15 | 223 | 1.6 | 3.2 | 0.00 | 0.00 | 0.00 | 46 | 1028.8 |
| 20260906051103 | 15 | 175 | 1.6 | 11.3 | 0.00 | 0.00 | 0.00 | 45 | 1028.8 |
| 20260906050104 | 16 | 152 | 1.6 | 14.5 | 0.00 | 0.00 | 0.00 | 45 | 1028.7 |
| 20260906045102 | 16 | 162 | 3.2 | 14.5 | 0.00 | 0.00 | 0.00 | 45 | 1028.7 |
| 20260906044103 | 16 | 360 | 1.6 | 3.2 | 0.00 | 0.00 | 0.00 | 45 | 1028.7 |
| 20260906043103 | 16 | 209 | 1.6 | 11.3 | 0.00 | 0.00 | 0.00 | 45 | 1028.7 |
| 20260906042104 | 16 | 230 | 3.2 | 8.0 | 0.00 | 0.00 | 0.00 | 44 | 1028.7 |
| 20260906041103 | 16 | 184 | 1.6 | 4.8 | 0.00 | 0.00 | 0.00 | 44 | 1028.5 |
| 20260906035003 | 17 | 248 | 1.6 | 9.7 | 0.00 | 0.00 | 0.00 | 45 | 1028.5 |
| 20260906034004 | 17 | 133 | 0.0 | 3.2 | 0.00 | 0.00 | 0.00 | 44 | 1028.4 |
| 20260906033002 | 17 | 275 | 0.0 | 11.3 | 0.00 | 0.00 | 0.00 | 44 | 1028.4 |
| 20260906032003 | 17 | 114 | 0.0 | 3.2 | 0.00 | 0.00 | 0.00 | 44 | 1028.1 |
| 20260906031004 | 17 | 200 | 0.0 | 12.9 | 0.00 | 0.00 | 0.00 | 44 | 1028.0 |
| 20260906030002 | 17 | 185 | 1.6 | 3.2 | 0.00 | 0.00 | 0.00 | 43 | 1027.9 |
| 20260906025003 | 18 | 161 | 0.0 | 0.0 | 0.00 | 0.00 | 0.00 | 43 | 1027.7 |
| 20260906024003 | 18 | 138 | 0.0 | 4.8 | 0.00 | 0.00 | 0.00 | 43 | 1027.6 |
| 20260906023004 | 18 | 141 | 3.2 | 3.2 | 0.00 | 0.00 | 0.00 | 42 | 1027.3 |
| 20260906022002 | 18 | 241 | 3.2 | 9.7 | 0.00 | 0.00 | 0.00 | 42 | 1027.2 |
| 20260906021003 | 19 | 134 | 3.2 | 0.0 | 0.00 | 0.00 | 0.00 | 41 | 1027.1 |
| 20260906020004 | 20 | 360 | 0.0 | 14.5 | 0.00 | 0.00 | 0.00 | 41 | 1026.9 |
| 20260906015002 | 20 | 268 | 0.0 | 0.0 | 0.00 | 0.00 | 0.00 | 40 | 1026.8 |
| 20260906014003 | 20 | 260 | 0.0 | 3.2 | 0.00 | 0.00 | 0.00 | 39 | 1026.8 |
| 20260906013003 | 21 | 59 | 0.0 | 0.0 | 0.00 | 0.00 | 0.00 | 39 | 1026.7 |
| 20260906012004 | 21 | 59 | 0.0 | 0.0 | 0.00 | 0.00 | 0.00 | 37 | 1026.7 |
| 20260906011002 | 22 | 59 | 0.0 | 0.0 | 0.00 | 0.00 | 0.00 | 36 | 1026.5 |
| 20260906010002 | 22 | 210 | 0.0 | 9.7 | 0.00 | 0.00 | 0.00 | 35 | 1026.5 |
| 20260906005003 | 22 | 80 | 0.0 | 0.0 | 0.00 | 0.00 | 0.00 | 33 | 1026.5 |
| 20260906004003 | 23 | 80 | 0.0 | 3.2 | 0.00 | 0.00 | 0.00 | 33 | 1026.5 |
| 20260906003003 | 23 | 120 | 0.0 | 3.2 | 0.00 | 0.00 | 0.00 | 31 | 1026.4 |
| 20260906002004 | 23 | 23 | 1.6 | 8.0 | 0.00 | 0.00 | 0.00 | 30 | 1026.3 |
| 20260906001002 | 23 | 3 | 1.6 | 8.0 | 0.00 | 0.00 | 0.00 | 29 | 1026.1 |
| 20260906000003 | 23 | 48 | 0.0 | 4.8 | 0.00 | 0.00 | 0.00 | 30 | 1026.1 |
| 20260905235003 | 24 | 10 | 0.0 | 8.0 | 0.00 | 0.00 | 0.00 | 29 | 1026.0 |
| 20260905234003 | 24 | 24 | 0.0 | 3.2 | 0.00 | 0.00 | 0.00 | 28 | 1026.0 |